This is the latest recevied weather packets stored in our database for station/object KC3ELT-10. If no packets are shown the sender has not sent any weather packets the latest 10 day(s).
| Time | Temp. | Humidity | Pressure | Rain* | Wind** | Luminosity | Snow |
|---|---|---|---|---|---|---|---|
| 1777646879 | 9.44° C | 64% | 1008 hPa | 0 mm | 0.89 m/s, 257° | - | - |
| 1777646579 | 9.44° C | 64% | 1008 hPa | 0 mm | 1.79 m/s, 257° | - | - |
| 1777646279 | 9.44° C | 64% | 1008 hPa | 0 mm | 1.79 m/s, 263° | - | - |
| 1777645979 | 9.44° C | 65% | 1008 hPa | 0 mm | 1.34 m/s, 311° | - | - |
| 1777645679 | 9.44° C | 65% | 1008.4 hPa | 0 mm | 0.89 m/s, 348° | - | - |
| 1777645379 | 9.44° C | 65% | 1008.4 hPa | 0 mm | 3.13 m/s, 321° | - | - |
| 1777645079 | 9.44° C | 65% | 1008.4 hPa | 0 mm | 1.34 m/s, 356° | - | - |
| 1777644779 | 9.44° C | 66% | 1008 hPa | 0 mm | 1.34 m/s, 281° | - | - |
| 1777644479 | 8.89° C | 68% | 1008 hPa | 0 mm | 1.34 m/s, 296° | - | - |
| 1777644179 | 8.89° C | 66% | 1008 hPa | 0 mm | 1.79 m/s, 25° | - | - |
| 1777643879 | 8.89° C | 66% | 1008.1 hPa | 0 mm | 0.89 m/s, 250° | - | - |
| 1777643579 | 8.89° C | 69% | 1008.1 hPa | 0 mm | 2.24 m/s, 359° | - | - |
| 1777643279 | 8.89° C | 70% | 1008.1 hPa | 0 mm | 0.45 m/s, 297° | - | - |
| 1777642979 | 8.33° C | 70% | 1008 hPa | 0 mm | 1.79 m/s, 343° | - | - |
| 1777642679 | 8.33° C | 71% | 1008 hPa | 0 mm | 0.89 m/s, 0° | - | - |
| 1777642378 | 8.33° C | 72% | 1008 hPa | 0 mm | 1.79 m/s, 264° | - | - |
| 1777642079 | 8.33° C | 72% | 1008.3 hPa | 0 mm | 1.34 m/s, 359° | - | - |
| 1777641779 | 8.33° C | 72% | 1008.3 hPa | 0 mm | 1.34 m/s, 354° | - | - |
| 1777641478 | 7.78° C | 73% | 1008.3 hPa | 0 mm | 1.34 m/s, 1° | - | - |
| 1777641178 | 7.78° C | 74% | 1008.1 hPa | 0 mm | 0.89 m/s, 309° | - | - |
| 1777640879 | 7.22° C | 76% | 1008.1 hPa | 0 mm | 2.24 m/s, 4° | - | - |
| 1777640579 | 7.22° C | 75% | 1008.1 hPa | 0 mm | 0.89 m/s, 328° | - | - |
| 1777640279 | 7.22° C | 77% | 1008.2 hPa | 0 mm | 1.79 m/s, 8° | - | - |
| 1777639979 | 7.22° C | 77% | 1008.2 hPa | 0 mm | 0.45 m/s, 313° | - | - |
| 1777639679 | 6.67° C | 77% | 1008.2 hPa | 0 mm | 1.79 m/s, 321° | - | - |
* Rain latest hour (hover to see other rain measurements)
** Current wind speed in m/s (hover to see current wind gust speed)